Home   Weather   Piraeus   Past weeks

Flag for Greece Past Weather in Piraeus, Greece — Yesterday and Last 2 Weeks

Now
70 °F

Passing clouds.


Feels Like: 70 °F
Forecast: 53 / 74 °F
Wind: 7 mph from South

Location: Elefsis Airport

Current Time: Apr 26, 2017 at 7:13:13 pm

Latest Report: Apr 26, 2017 at 6:20 pm


Visibility: N/A

Pressure: 30.07 "Hg

Humidity: 38%

Dew Point: 43 °F

Location of PiraeusLocation

Past Weather in Piraeus — Graph

°F

Piraeus Temperature Yesterday

Maximum temperature yesterday: 72 °F (at 2:20 pm)
Minimum temperature yesterday: 48 °F (at 3:20 am)
Average temperature yesterday: 60 °F

High & Low Weather Summary for the Past Weeks

 TemperatureHumidityPressure
High82 °F (Apr 12, 1:20 pm)94% (Apr 18, 12:50 am)30.21 "Hg (Apr 18, 12:50 am)
Low43 °F (Apr 23, 3:50 am)19% (Apr 12, 1:20 pm)29.74 "Hg (Apr 13, 5:20 pm)
Average61 °F54%29.97 "Hg
* Reported Apr 11 5:20 pm — Apr 26 5:50 pm, Piraeus, Weather by CustomWeather, © 2017

Note: Actual official high and low records may vary slightly from our data, if they occured in-between our weather recording intervals... More about our weather records

Advertising

Piraeus Weather History for the Previous 24 Hours

Scroll right to see more
 ConditionsComfort  
Time TempWeatherWind HumidityBarometerVisibility
5:50 pm
Wed, Apr 26
70 °FPassing clouds.7 mph35%30.07 "HgN/A
5:20 pm72 °FPassing clouds.10 mph31%30.07 "HgN/A
4:50 pm72 °FPassing clouds.9 mph31%30.07 "HgN/A
3:50 pm72 °FPassing clouds.8 mph31%30.09 "HgN/A
3:20 pm73 °FPassing clouds.8 mph27%30.09 "HgN/A
2:50 pm75 °FSunny.8 mph22%30.09 "Hg10 mi
2:20 pm73 °FPassing clouds.7 mph20%30.09 "HgN/A
1:50 pm72 °FPassing clouds.7 mph27%30.09 "HgN/A
1:20 pm72 °FPassing clouds.7 mph33%30.09 "HgN/A
12:50 pm72 °FSunny.6 mph31%30.12 "Hg10 mi
12:20 pm72 °FPassing clouds.5 mph29%30.12 "HgN/A
11:50 am70 °FSunny.5 mph33%30.12 "Hg10 mi
11:20 am70 °FSunny.No wind35%30.12 "Hg10 mi
10:20 am66 °FSunny.No wind40%30.12 "Hg10 mi
9:50 am66 °FSunny.No wind40%30.12 "Hg10 mi
9:20 am64 °FSunny.No wind43%30.12 "Hg10 mi
8:50 am63 °FSunny.No wind45%30.09 "Hg10 mi
8:20 am57 °FSunny.No wind55%30.12 "Hg10 mi
7:50 am54 °FSunny.No wind63%30.12 "Hg10 mi
7:20 am52 °FSunny.No wind67%30.12 "Hg10 mi
6:50 am50 °FSunny.No wind71%30.09 "Hg10 mi
6:20 am48 °FClear.No wind76%30.09 "Hg10 mi
5:50 am48 °FClear.No wind76%30.09 "Hg10 mi
5:20 am50 °FClear.No wind71%30.09 "Hg10 mi
4:50 am50 °FClear.No wind71%30.09 "Hg10 mi
4:20 am48 °FClear.No wind76%30.09 "Hg10 mi
3:50 am52 °FClear.No wind72%30.12 "Hg10 mi
3:20 am50 °FClear.No wind76%30.12 "Hg10 mi
2:50 am52 °FClear.No wind72%30.12 "Hg10 mi
2:20 am52 °FClear.No wind72%30.12 "Hg10 mi
1:50 am54 °FClear.No wind72%30.12 "Hg10 mi
1:20 am54 °FClear.No wind72%30.15 "Hg10 mi
12:50 am54 °FClear.No wind72%30.15 "Hg10 mi
12:20 am54 °FClear.No wind77%30.15 "Hg10 mi
11:50 pm
Tue, Apr 25
54 °FClear.No wind77%30.15 "Hg10 mi
11:20 pm54 °FClear.No wind77%30.15 "Hg10 mi
10:50 pm57 °FClear.No wind67%30.15 "Hg10 mi
10:20 pm59 °FClear.No wind68%30.15 "Hg10 mi
9:50 pm59 °FClear.No wind68%30.15 "Hg10 mi
9:20 pm59 °FClear.No wind72%30.15 "Hg10 mi
8:50 pm61 °FClear.No wind68%30.12 "Hg10 mi
8:20 pm61 °FClear.9 mph68%30.12 "Hg10 mi
7:50 pm63 °FSunny.9 mph64%30.12 "Hg10 mi
7:20 pm64 °FSunny.No wind56%30.12 "Hg10 mi
Weather by CustomWeather, © 2017

See weather overviewHow to use our weather pages